Mount Holly, NJ

12:50 PM EDT on June 28, 2017 (GMT -0400)
South Jersey Regional

Weather History for KVAY - May, 2012

Change the Weather History Date:

Monday, May 28, 2012

  Actual Average (KPNE) Record (KPNE)
Temperature  
Mean Temperature 80 °F -  
Max Temperature 91 °F 72 °F 91 °F (2012)
Min Temperature 70 °F 53 °F 43 °F (1997)
Cooling Degree Days 16    
Growing Degree Days 30 (Base 50)    
Moisture  
Dew Point 66 °F    
Average Humidity 65    
Maximum Humidity 81    
Minimum Humidity 45    
Precipitation  
Precipitation 0.00 in - - ()
Sea Level Pressure  
Sea Level Pressure 29.96 in    
Wind  
Wind Speed 5 mph (WSW)    
Max Wind Speed 12 mph    
Max Gust Speed 23 mph    
Visibility 10 miles    
Events      
Averages and records for this station are not official NWS values.
T = Trace of Precipitation, MM = Missing Value Source: NWS Daily Summary

Daily Weather History Graph

Daily Weather History Graph

Search for Another Location

Airport or City:

Trip Planner

Search our weather history database for the weather conditions in past years. The results will help you decide how hot, cold, wet, or windy it might be!

Date:

Astronomy

May. 28, 2012 Rise Set
Actual Time 5:34 AM EDT 8:19 PM EDT
Civil Twilight 5:02 AM EDT 8:51 PM EDT
Nautical Twilight 4:22 AM EDT 9:31 PM EDT
Astronomical Twilight 3:37 AM EDT 10:16 PM EDT
Moon 12:42 PM EDT 12:55 AM EDT
Length of Visible Light 15h 48m
Length of Day
14h 44m
Waxing Crescent, 48% of the Moon is Illuminated
May 28
Waxing Crescent
May 28
First Quarter
Jun 4
Full
Jun 11
Last Quarter
Jun 19
New

Hourly Weather History & Observations

Time (EDT) Temp. Heat Index Dew Point Humidity Pressure Visibility Wind Dir Wind Speed Gust Speed Precip Events Conditions
12:54 AM 73.9 °F - 66.0 °F 76% 29.98 in 10.0 mi SW 3.5 mph - N/A   Mostly Cloudy
1:30 AM 73.4 °F - 66.2 °F 78% 29.95 in 10.0 mi SE 8.1 mph - N/A   Scattered Clouds
1:54 AM 73.0 °F - 66.9 °F 81% 29.94 in 10.0 mi SSE 10.4 mph 23.0 mph N/A   Partly Cloudy
2:17 AM 73.4 °F - 66.2 °F 78% 29.99 in 10.0 mi Variable 5.8 mph - N/A   Mostly Cloudy
2:54 AM 73.0 °F - 64.0 °F 73% 29.99 in 10.0 mi West 11.5 mph - N/A   Overcast
3:12 AM 73.4 °F - 64.4 °F 73% 29.98 in 10.0 mi Variable 4.6 mph - N/A   Overcast
3:54 AM 72.0 °F - 63.0 °F 73% 29.97 in 10.0 mi West 4.6 mph - N/A   Partly Cloudy
4:54 AM 72.0 °F - 63.0 °F 73% 29.96 in 10.0 mi WSW 5.8 mph - N/A   Scattered Clouds
5:54 AM 71.1 °F - 63.0 °F 75% 29.99 in 10.0 mi Calm Calm - N/A   Clear
6:54 AM 70.0 °F - 64.0 °F 81% 30.01 in 10.0 mi Calm Calm - N/A   Clear
7:54 AM 73.0 °F - 64.0 °F 73% 30.02 in 10.0 mi Calm Calm - N/A   Clear
8:54 AM 77.0 °F - 64.9 °F 66% 30.02 in 10.0 mi Variable 4.6 mph - N/A   Clear
9:54 AM 78.1 °F - 64.9 °F 64% 30.01 in 10.0 mi WSW 9.2 mph - N/A   Clear
10:54 AM 80.1 °F 81.9 °F 64.9 °F 60% 30.00 in 10.0 mi West 9.2 mph - N/A   Clear
11:54 AM 82.9 °F 84.6 °F 64.9 °F 54% 29.99 in 10.0 mi WSW 8.1 mph - N/A   Clear
12:54 PM 86.0 °F 88.2 °F 66.0 °F 51% 29.97 in 10.0 mi West 9.2 mph - N/A   Clear
1:54 PM 87.1 °F 89.9 °F 66.9 °F 51% 29.96 in 10.0 mi NW 6.9 mph - N/A   Clear
2:54 PM 90.0 °F 92.8 °F 66.9 °F 46% 29.94 in 10.0 mi Variable 4.6 mph - N/A   Clear
3:54 PM 91.0 °F 94.3 °F 66.9 °F 45% 29.92 in 10.0 mi Variable 3.5 mph - N/A   Clear
4:54 PM 91.0 °F 94.3 °F 66.9 °F 45% 29.91 in 10.0 mi SW 4.6 mph - N/A   Clear
5:54 PM 90.0 °F 93.6 °F 68.0 °F 48% 29.91 in 10.0 mi Variable 3.5 mph - N/A   Clear
6:54 PM 89.1 °F 92.9 °F 68.0 °F 50% 29.91 in 10.0 mi SW 6.9 mph - N/A   Clear
7:54 PM 86.0 °F 90.1 °F 69.1 °F 57% 29.91 in 10.0 mi SW 5.8 mph - N/A   Clear
8:54 PM 82.0 °F 85.5 °F 69.1 °F 65% 29.91 in 10.0 mi Calm Calm - N/A   Clear
9:54 PM 78.1 °F - 70.0 °F 76% 29.93 in 9.0 mi Calm Calm - N/A   Clear
10:54 PM 77.0 °F - 70.0 °F 79% 29.93 in 9.0 mi Calm Calm - N/A   Clear
11:54 PM 78.1 °F - 70.0 °F 76% 29.92 in 10.0 mi SW 4.6 mph - N/A   Clear